Temp
72 70 69 68 68 67 68 69 70 71 71 71 69 69 71 72 72 73 73 72 73 73 72 72 71 72 72 70 71 70 70 68 65 67 70 71 71 72 73 74 75 74 74
72 71 70 69 68 68 68 68 69 70 71 70 71 71 72 72 73 72 72 73 72 73 74 73 73 73 71 70 70 70 70 68 67 66 70 71 71 73 73 72 76 79 74
71 71 70 70 69 68 68 68 70 69 70 71 71 71 72 73 73 73 73 72 73 74 73 72 72 71 70 72 69 70 70 70 69 68 67 70 71 72 72 73 73 74 76
73 72 71 70 70 69 70 70 71 72 71 72 71 72 73 72 72 72 73 72 73 73 73 73 73 72 72 71 70 71 70 69 69 68 68 68 70 71 71 70 70 71 73
71 71 71 71 72 71 71 71 72 72 72 73 72 73 72 73 74 72 72 72 72 72 73 74 74 74 73 71 71 71 70 69 68 68 66 66 67 68 68 72 69 70 72
70 70 70 69 69 69 69 69 70 70 70 70 71 71 71 74 69 70 71 71 70 71 70 71 72 73 72 71 71 70 71 70 68 67 68 66 67 68 68 68 69 66 66
70 71 71 70 70 69 68 68 68 68 68 69 69 69 69 70 69 68 70 70 70 70 70 70 72 76 73 73 70 69 69 69 71 70 69 68 67 69 68 66 67 67 66
71 71 70 70 70 70 68 67 67 67 67 67 68 68 69 70 68 67 68 70 69 69 70 70 70 71 72 72 71 70 71 71 70 71 71 71 71 72 69 68 67 68 67
69 70 70 69 68 68 67 66 67 66 66 66 67 68 67 67 65 64 65 68 68 68 69 69 69 69 68 67 69 68 69 69 69 67 68 68 68 68 70 69 66 65 64
69 70 69 69 68 67 66 66 66 66 66 66 66 67 67 67 65 64 63 66 65 67 68 68 66 65 63 61 65 66 66 67 68 68 68 67 66 68 67 72 69 64 63
69 69 68 67 66 66 65 64 64 64 64 64 64 66 66 67 68 62 61 65 67 68 66 67 66 59 57 57 58 63 65 65 66 67 67 67 66 67 67 66 68 68 64
68 67 66 66 68 69 64 63 63 62 62 62 62 64 67 67 64 64 61 59 64 65 65 66 65 57 55 54 56 59 59 60 61 63 67 67 67 67 68 68 67 67 68
67 67 65 66 66 65 63 62 61 61 60 60 60 60 65 69 65 63 60 60 58 62 65 63 61 54 53 55 56 56 58 62 63 63 64 66 70 70 70 69 68 67 67
63 63 63 63 63 63 62 62 59 59 59 60 59 60 60 61 64 63 64 61 60 60 62 62 62 61 59 60 60 61 63 63 64 64 65 67 68 69 68 69 68 67 66
60 60 60 62 60 60 60 60 61 60 60 59 58 59 59 61 63 60 57 61 61 60 59 61 61 60 60 60 61 63 65 65 63 64 64 65 66 67 67 67 67 67 65
57 59 58 59 59 60 58 59 58 55 53 52 50 52 60 56 53 50 48 47 48 48 56 58 58 59 59 61 57 59 61 63 64 63 64 64 65 67 67 66 66 66 66
53 54 55 56 58 58 59 59 57 60 56 53 52 51 49 51 49 48 45 44 44 49 54 56 57 59 60 59 59 59 61 62 64 63 63 64 65 67 66 66 66 66 66
52 54 53 54 55 56 56 58 61 58 58 60 59 55 53 49 49 46 44 45 53 50 54 55 57 59 59 59 60 60 62 62 61 63 63 65 66 66 65 66 66 65 65
53 54 56 58 58 56 57 57 58 59 57 58 60 58 56 52 49 45 43 52 53 56 57 55 57 60 60 61 62 62 62 62 62 63 64 65 66 65 65 65 65 59 61
53 56 56 56 56 57 57 57 57 57 56 55 56 59 61 55 57 57 59 58 55 56 59 60 61 60 61 61 62 62 61 61 62 63 64 65 65 65 64 64 64 64 63
55 53 55 54 54 55 55 54 56 56 56 57 59 61 52 55 58 59 62 60 58 61 62 62 62 63 63 61 61 61 61 62 63 64 64 65 64 64 64 64 64 63 63
54 53 53 53 53 53 53 54 54 55 56 56 58 59 51 58 60 60 61 61 63 63 63 63 63 64 65 65 63 62 62 63 64 64 64 65 64 64 64 63 62 62 61
52 52 51 51 51 51 51 52 52 53 54 55 56 57 58 58 58 59 59 60 61 62 64 64 63 63 65 64 64 64 63 63 64 65 64 65 64 64 63 62 61 60 60
51 50 49 49 49 48 48 48 49 48 49 51 52 53 54 55 56 56 57 58 60 61 63 63 63 63 63 63 64 64 65 65 65 66 65 65 65 61 63 63 62 62 62
49 49 48 47 46 46 46 46 47 47 47 48 49 49 50 51 52 52 52 55 54 56 56 55 59 63 64 63 64 64 60 45 57 57 65 65 65 64 64 63 62 62 61
44 45 48 47 46 45 45 45 45 45 44 45 45 45 46 46 47 48 49 49 50 49 50 53 55 58 60 61 63 56 46 41 50 45 64 65 64 64 63 63 63 61 61
MSLP
1012.12 1012.37 1012.43 1012.55 1012.51 1012.49 1012.33 1012.09 1011.94 1011.85 1011.81 1011.78 1012.05 1011.72 1011.72 1011.78 1011.73 1011.61 1011.40 1011.22 1011.18 1011.28 1011.41 1011.37 1011.70 1011.81 1011.88 1012.22 1012.40 1012.62 1012.68 1013.04 1013.41 1012.77 1012.25 1011.88 1011.61 1011.33 1011.27 1011.08 1010.90 1011.15 1011.35
1012.07 1012.22 1012.40 1012.47 1012.53 1012.39 1012.09 1011.94 1011.79 1011.66 1011.71 1011.74 1011.57 1011.50 1011.69 1011.82 1011.54 1011.22 1011.21 1010.85 1010.89 1010.95 1010.95 1010.97 1011.28 1011.34 1011.41 1011.56 1011.84 1012.24 1012.24 1012.57 1013.01 1012.69 1012.12 1011.70 1011.69 1011.12 1011.09 1011.28 1011.16 1010.91 1011.09
1012.29 1012.46 1012.63 1012.47 1012.40 1012.26 1011.86 1011.53 1011.46 1011.29 1011.00 1010.94 1011.13 1011.36 1011.32 1011.24 1011.13 1010.92 1010.89 1010.48 1010.45 1010.46 1010.51 1010.75 1010.78 1010.82 1010.79 1010.91 1011.18 1011.50 1011.59 1011.72 1012.22 1012.46 1012.20 1011.64 1011.40 1011.21 1011.18 1011.04 1010.76 1010.64 1010.40
1012.48 1012.52 1012.48 1012.38 1012.16 1011.99 1011.78 1011.47 1011.20 1011.10 1010.99 1010.67 1010.68 1010.52 1010.57 1010.79 1010.73 1010.66 1010.48 1010.27 1010.23 1010.22 1010.16 1010.19 1010.13 1010.11 1010.13 1010.20 1010.42 1010.56 1010.79 1011.11 1011.53 1011.69 1011.79 1011.69 1011.32 1010.99 1011.13 1011.02 1010.70 1010.47 1010.27
1012.45 1012.57 1012.52 1012.25 1011.98 1011.85 1011.73 1011.55 1011.31 1011.06 1011.08 1010.96 1010.81 1010.51 1010.46 1010.45 1010.48 1010.45 1010.30 1010.19 1010.12 1010.07 1009.83 1009.72 1009.57 1009.50 1009.46 1009.45 1009.70 1010.02 1010.28 1010.46 1010.78 1011.05 1011.38 1011.47 1011.33 1011.21 1011.16 1010.57 1010.56 1010.39 1010.11
1012.47 1012.54 1012.65 1012.50 1012.30 1012.14 1011.96 1011.88 1011.76 1011.55 1011.30 1011.18 1011.07 1010.85 1010.73 1010.50 1010.41 1010.29 1010.24 1010.08 1009.86 1009.70 1009.50 1009.31 1009.21 1009.06 1009.14 1009.07 1008.97 1009.08 1009.31 1009.68 1010.05 1010.39 1010.60 1010.64 1010.58 1010.46 1010.45 1010.53 1010.63 1010.62 1010.66
1012.34 1012.44 1012.57 1012.64 1012.46 1012.29 1012.13 1012.01 1011.95 1011.83 1011.57 1011.34 1011.12 1010.96 1010.78 1010.40 1010.16 1010.06 1009.89 1009.77 1009.63 1009.42 1009.24 1009.17 1009.06 1008.84 1008.78 1008.79 1008.76 1008.76 1008.80 1008.99 1009.00 1009.17 1009.51 1009.53 1009.80 1009.65 1009.88 1010.14 1010.26 1010.41 1010.53
1011.94 1012.05 1012.57 1012.75 1012.67 1012.49 1012.25 1012.05 1011.89 1011.69 1011.60 1011.45 1011.15 1010.85 1010.63 1010.22 1009.95 1009.79 1009.66 1009.51 1009.33 1009.13 1008.98 1008.91 1008.91 1008.76 1008.69 1008.79 1008.78 1008.67 1008.56 1008.54 1008.64 1008.74 1008.58 1008.47 1008.47 1008.76 1009.06 1009.13 1009.52 1009.90 1010.19
1012.27 1012.32 1012.48 1012.68 1012.88 1012.77 1012.54 1012.20 1011.83 1011.59 1011.42 1011.16 1010.80 1010.60 1010.44 1009.97 1009.57 1009.48 1009.46 1009.35 1009.11 1008.80 1008.55 1008.57 1008.57 1008.58 1008.61 1008.53 1008.68 1008.61 1008.34 1008.13 1008.01 1007.93 1007.94 1007.81 1007.86 1008.05 1008.31 1008.98 1009.38 1009.90 1010.11
1012.23 1012.19 1012.19 1012.25 1012.57 1012.57 1012.45 1012.10 1011.57 1011.31 1011.08 1010.68 1010.42 1010.07 1009.72 1009.51 1008.95 1008.84 1009.01 1009.02 1008.84 1008.52 1008.28 1008.12 1008.15 1008.29 1008.18 1008.34 1008.46 1008.44 1008.36 1007.93 1007.89 1007.83 1007.81 1007.62 1007.60 1007.69 1007.81 1007.96 1008.26 1009.12 1009.50
1011.99 1011.92 1011.96 1012.00 1012.15 1012.13 1012.03 1011.68 1011.34 1011.19 1010.80 1010.44 1010.06 1009.61 1009.25 1008.84 1008.46 1008.47 1008.31 1008.47 1008.33 1008.12 1008.05 1007.93 1007.91 1008.02 1008.05 1008.09 1008.14 1008.19 1007.96 1007.77 1007.73 1007.80 1007.73 1007.70 1007.56 1007.41 1007.37 1007.53 1007.58 1007.69 1008.41
1012.11 1011.88 1011.88 1011.55 1011.61 1011.54 1011.58 1011.39 1011.13 1010.97 1010.76 1010.43 1010.10 1009.67 1009.13 1008.52 1008.25 1007.77 1007.61 1007.67 1007.68 1007.96 1007.69 1007.52 1007.41 1007.57 1007.72 1007.80 1007.98 1007.87 1007.73 1007.64 1007.74 1007.48 1007.52 1007.32 1007.23 1007.00 1006.82 1006.96 1007.23 1007.11 1007.36
1012.08 1011.98 1011.82 1011.62 1011.52 1011.34 1011.28 1011.07 1010.89 1010.73 1010.59 1010.47 1010.30 1009.97 1009.38 1008.65 1008.22 1007.78 1007.66 1007.16 1007.11 1007.34 1006.97 1006.89 1007.03 1007.10 1007.11 1007.13 1007.04 1007.24 1007.49 1007.51 1007.49 1007.43 1007.10 1006.66 1006.34 1006.15 1006.12 1006.34 1006.59 1006.66 1007.02
1012.72 1012.52 1012.31 1011.98 1011.52 1011.15 1010.87 1010.66 1010.49 1010.45 1010.26 1010.01 1009.84 1009.61 1009.10 1008.67 1008.24 1007.72 1007.45 1007.34 1007.14 1006.94 1006.57 1006.56 1006.56 1006.56 1006.58 1006.57 1006.63 1006.62 1006.74 1006.73 1006.73 1006.63 1006.37 1006.10 1005.82 1005.56 1005.53 1005.62 1005.75 1006.08 1006.52
1013.27 1013.01 1012.71 1012.36 1011.85 1011.31 1010.82 1010.53 1010.19 1009.76 1009.54 1009.36 1009.26 1008.96 1008.73 1008.32 1007.78 1007.35 1007.41 1007.20 1006.86 1006.51 1006.29 1006.23 1006.15 1006.13 1006.15 1006.08 1006.05 1005.91 1005.90 1005.92 1006.00 1005.85 1005.69 1005.51 1005.18 1004.99 1004.82 1004.90 1005.14 1005.34 1005.45
1013.94 1013.58 1013.15 1012.61 1012.00 1011.44 1010.79 1010.19 1009.75 1009.21 1008.75 1008.64 1008.34 1008.44 1007.87 1007.51 1007.16 1006.92 1006.72 1006.80 1006.55 1006.41 1006.49 1006.06 1005.88 1005.65 1005.58 1005.29 1005.29 1005.24 1005.23 1005.20 1005.09 1004.96 1004.86 1004.75 1004.60 1004.26 1004.16 1004.29 1004.42 1004.61 1004.80
1014.22 1013.63 1013.05 1012.50 1012.07 1011.53 1010.90 1010.25 1009.54 1008.78 1008.32 1007.93 1007.54 1007.25 1007.10 1007.01 1006.57 1006.14 1006.13 1006.05 1006.12 1006.36 1006.03 1005.60 1005.36 1005.06 1004.85 1004.77 1004.62 1004.52 1004.34 1004.16 1003.95 1004.04 1003.99 1003.94 1003.76 1003.67 1003.49 1003.52 1003.54 1003.71 1003.94
1013.97 1013.40 1012.87 1012.46 1011.97 1011.43 1010.85 1010.21 1009.55 1008.85 1008.18 1007.72 1007.17 1006.85 1006.42 1006.21 1005.79 1005.55 1005.80 1005.83 1005.84 1005.66 1005.48 1005.11 1004.74 1004.33 1004.09 1003.93 1003.76 1003.59 1003.33 1003.25 1003.28 1003.26 1003.21 1003.13 1002.97 1002.96 1002.77 1002.68 1002.85 1002.94 1003.13
1013.76 1013.26 1012.83 1012.32 1011.80 1011.31 1010.70 1010.02 1009.35 1008.72 1008.26 1007.66 1006.86 1006.35 1005.83 1005.44 1005.26 1005.33 1005.53 1005.69 1005.43 1004.93 1004.41 1004.11 1003.75 1003.46 1003.17 1002.96 1002.78 1002.58 1002.42 1002.37 1002.37 1002.34 1002.27 1002.17 1002.08 1002.23 1002.16 1002.15 1002.27 1002.44 1002.54
1013.73 1013.22 1012.79 1012.27 1011.71 1011.12 1010.59 1010.01 1009.33 1008.81 1008.25 1007.61 1007.00 1006.23 1005.58 1005.38 1005.28 1005.00 1004.90 1004.67 1004.29 1003.94 1003.59 1003.31 1002.91 1002.55 1002.26 1002.08 1001.88 1001.67 1001.55 1001.52 1001.49 1001.44 1001.37 1001.30 1001.20 1001.37 1001.59 1001.69 1001.82 1002.02 1002.30
1013.60 1013.11 1012.73 1012.28 1011.75 1011.19 1010.60 1010.02 1009.36 1008.76 1008.07 1007.35 1006.60 1006.01 1005.59 1005.30 1004.89 1004.59 1004.17 1003.78 1003.38 1002.98 1002.55 1002.17 1001.90 1001.58 1001.29 1001.15 1000.94 1000.81 1000.73 1000.60 1000.44 1000.33 1000.33 1000.35 1000.36 1000.53 1000.87 1001.16 1001.36 1001.62 1001.84
1013.76 1013.32 1012.85 1012.39 1011.82 1011.20 1010.66 1010.05 1009.28 1008.49 1007.74 1007.05 1006.40 1005.89 1005.53 1005.13 1004.66 1004.18 1003.68 1003.20 1002.57 1002.19 1001.84 1001.45 1001.02 1000.61 1000.24 1000.01 999.85 999.72 999.63 999.48 999.34 999.19 999.21 999.38 999.61 999.73 1000.06 1000.45 1000.69 1001.02 1001.36
1013.94 1013.49 1013.02 1012.52 1012.01 1011.39 1010.70 1010.02 1009.34 1008.66 1007.92 1007.21 1006.61 1005.94 1005.39 1004.88 1004.45 1003.93 1003.32 1002.66 1002.11 1001.57 1001.09 1000.69 1000.15 999.72 999.32 998.98 998.74 998.54 998.36 998.17 998.03 997.92 998.01 998.34 998.67 998.97 999.30 999.55 999.88 1000.24 1000.65
1014.14 1013.76 1013.29 1012.78 1012.22 1011.69 1011.05 1010.36 1009.63 1008.96 1008.29 1007.50 1006.78 1006.13 1005.51 1004.89 1004.29 1003.59 1002.99 1002.51 1001.67 1000.97 1000.30 999.82 999.35 998.81 998.33 998.01 997.69 997.40 997.10 996.80 996.67 996.68 996.66 997.05 997.52 997.94 998.32 998.66 998.93 999.36 999.71
1014.26 1013.97 1013.59 1013.09 1012.57 1011.94 1011.28 1010.58 1009.91 1009.31 1008.55 1007.84 1007.15 1006.55 1005.91 1005.18 1004.46 1003.90 1003.36 1002.42 1001.98 1001.31 1000.58 1000.24 999.33 998.18 997.34 997.05 996.70 996.24 995.79 995.42 995.37 995.45 995.60 995.87 996.40 996.88 997.37 997.70 998.10 998.70 999.29
1014.49 1014.27 1013.89 1013.34 1012.80 1012.25 1011.66 1010.94 1010.35 1009.66 1008.98 1008.28 1007.59 1006.89 1006.22 1005.52 1004.78 1003.98 1003.38 1002.71 1002.01 1001.43 1000.75 999.87 998.95 998.09 997.23 996.58 995.81 995.10 994.42 994.34 994.07 994.30 994.45 994.89 995.49 996.08 996.51 996.83 997.36 997.89 998.54
Wind_Speed
5 4 5 3 1 2 2 2 3 2 4 5 4 4 4 7 10 9 9 7 6 5 8 7 7 6 5 4 4 3 4 3 4 3 3 2 3 4 4 4 4 4 4
5 3 2 3 2 3 5 5 5 5 3 4 4 2 4 6 8 7 8 8 7 5 6 3 7 8 8 6 4 6 4 4 4 5 3 2 4 2 3 4 3 5 6
1 2 3 4 4 5 6 6 5 5 6 4 4 8 9 9 7 6 6 5 1 2 3 5 6 7 6 5 4 5 4 3 4 3 3 3 3 1 3 4 4 5 4
5 4 2 4 5 5 6 6 6 5 5 6 3 4 4 5 5 5 6 3 7 8 6 7 5 6 6 5 5 6 5 4 4 3 3 3 2 4 4 4 4 2 4
5 3 1 1 1 0 3 4 6 6 5 6 6 5 3 2 3 3 4 3 4 6 6 6 6 7 10 7 4 4 4 4 4 4 3 3 3 2 4 2 3 3 3
4 3 2 1 2 2 3 3 4 5 6 6 6 5 5 3 1 5 5 4 5 4 5 6 6 7 9 11 11 12 8 6 5 3 3 5 5 5 3 3 2 1 3
5 4 4 3 2 2 0 2 2 2 2 4 6 5 6 5 6 7 7 4 4 5 5 5 5 5 7 5 8 10 10 11 9 7 6 8 5 7 5 3 4 3 4
6 3 4 4 3 4 5 5 4 3 3 3 4 5 4 5 9 7 9 6 5 6 6 6 6 6 5 5 6 6 6 5 7 7 7 8 6 5 6 7 6 3 1
2 3 4 5 5 5 6 6 5 4 4 4 4 6 5 7 10 10 7 6 6 7 5 6 6 6 8 9 5 6 6 6 5 10 11 11 10 10 7 4 4 3 3
4 4 3 3 2 3 3 5 3 3 5 5 6 6 8 8 10 12 8 4 6 5 6 6 6 6 8 3 5 5 6 7 4 3 3 5 7 6 9 10 6 5 4
2 0 1 2 3 5 5 3 4 6 6 6 7 7 7 8 9 7 12 6 6 5 5 5 4 3 3 4 3 3 5 2 4 4 4 4 4 5 4 5 6 6 5
4 1 3 4 4 4 5 5 5 5 6 7 6 8 7 8 6 9 6 12 6 5 7 4 5 8 7 5 3 7 7 4 3 3 5 6 6 7 7 7 7 4 3
4 5 5 6 6 6 6 6 4 4 4 5 4 4 6 7 5 9 10 6 10 4 5 7 8 10 9 7 9 9 6 3 4 4 6 7 8 9 9 6 6 6 6
7 7 7 6 7 6 4 4 2 3 4 4 4 4 4 5 6 5 5 4 5 5 5 5 6 6 7 5 5 4 5 6 6 6 7 7 7 7 8 8 8 7 5
6 6 6 6 6 6 5 4 4 5 6 5 4 4 4 6 6 7 5 5 4 6 5 3 3 3 4 4 4 6 6 7 7 7 7 6 8 7 8 7 6 6 7
6 6 6 6 6 6 5 7 8 11 11 12 13 8 6 10 14 13 9 8 10 8 3 5 5 6 7 7 5 5 5 9 9 7 6 6 7 7 8 7 8 8 10
6 6 5 5 6 7 7 8 9 8 12 13 14 14 11 13 14 13 8 6 1 7 4 5 5 7 8 7 6 6 8 7 8 7 6 6 6 8 8 8 9 9 9
7 10 5 5 5 7 6 8 9 10 9 8 9 9 11 12 13 8 5 0 2 3 4 5 6 7 7 8 7 7 7 6 6 7 7 8 7 7 6 8 8 9 6
6 6 7 8 7 8 8 8 8 8 7 9 10 9 10 11 11 4 4 2 4 6 5 5 7 7 7 7 8 7 7 7 7 7 7 8 6 6 8 8 7 8 8
7 15 12 8 8 8 9 9 9 9 9 7 7 9 8 2 3 4 4 4 5 5 6 7 7 6 7 7 8 7 7 7 7 8 9 8 7 7 8 7 8 8 8
9 8 16 8 8 8 8 9 9 9 10 10 10 9 10 4 6 6 7 6 5 7 9 8 7 7 7 7 7 7 7 8 8 9 8 8 8 8 8 8 8 7 7
7 8 8 9 9 9 9 9 9 10 9 9 9 9 11 6 8 8 9 10 9 8 8 8 8 9 8 8 8 8 9 10 9 9 8 8 8 8 8 8 8 7 6
8 9 9 8 9 12 10 9 9 9 10 9 10 9 9 8 9 10 10 10 10 10 9 9 10 10 9 8 8 9 10 10 10 9 9 9 9 8 9 9 9 8 8
7 9 9 9 9 9 9 10 9 11 10 10 10 9 9 9 10 10 9 11 11 10 9 10 9 13 11 11 10 10 9 9 8 9 12 10 10 10 10 10 10 10 8
6 7 8 8 9 9 10 9 10 10 10 10 10 10 10 10 10 10 11 10 10 11 10 13 12 15 12 13 14 17 15 16 12 12 9 11 13 15 13 10 11 10 11
4 5 7 7 8 8 9 9 10 10 10 10 10 10 10 11 10 10 10 11 10 10 14 11 13 19 19 15 16 18 18 17 13 16 10 10 11 11 11 12 16 12 12
Wind_Direction
157 157 164 147 111 323 350 355 357 68 143 124 146 286 327 314 293 283 266 258 252 214 240 207 226 221 219 211 204 224 218 164 229 286 258 240 260 261 257 277 231 222 238
185 182 175 160 180 274 303 319 309 289 241 204 190 273 311 287 305 312 282 254 242 254 274 241 210 269 240 222 207 211 201 182 211 247 246 256 248 288 288 283 236 220 213
162 241 199 220 251 266 278 289 283 284 274 260 207 189 201 223 235 264 281 298 190 1 321 279 236 214 238 237 219 219 204 206 193 212 265 269 246 326 296 252 245 239 231
108 81 154 246 256 272 295 307 319 334 324 330 308 274 233 252 242 259 263 278 174 218 227 236 255 217 213 225 228 224 219 211 186 184 221 240 223 233 263 252 272 241 256
101 95 94 32 61 31 9 2 357 6 6 8 6 7 342 281 234 257 280 262 244 223 226 235 231 216 206 193 177 224 222 210 209 206 193 213 204 219 226 244 235 234 260
150 167 207 124 88 80 67 34 22 4 356 360 358 357 343 325 307 282 249 257 260 245 254 259 251 226 223 225 217 216 194 196 210 187 205 207 209 202 194 201 238 138 261
182 200 229 234 265 285 247 45 13 311 328 336 334 339 318 315 314 267 249 251 261 261 260 259 257 240 223 238 245 247 244 225 213 183 208 215 200 202 177 196 207 191 229
213 239 319 301 296 326 341 343 333 299 299 276 288 307 300 298 294 252 252 272 273 264 262 258 248 262 263 257 270 270 260 240 219 223 216 226 203 186 185 182 186 180 293
1 63 47 38 13 351 352 337 330 332 317 305 293 291 272 279 265 250 249 258 265 270 265 265 251 254 255 250 260 271 279 274 259 240 228 225 201 190 172 141 173 143 230
122 112 109 92 28 340 303 304 284 286 286 293 286 270 263 267 269 255 232 238 262 261 266 271 269 276 280 244 225 243 271 276 288 276 244 243 251 248 194 199 165 177 172
161 169 229 208 247 248 262 277 278 298 299 295 296 290 282 276 282 256 235 228 238 254 229 253 258 209 109 77 154 192 227 246 295 267 249 247 243 248 224 209 197 170 166
235 255 294 315 298 286 300 288 291 292 297 299 303 307 300 290 286 280 283 202 221 226 248 244 224 209 227 223 243 249 261 305 298 273 255 249 237 233 231 211 207 195 234
328 301 300 304 298 293 299 302 307 304 300 298 299 303 311 315 300 304 295 204 191 204 216 212 223 210 232 256 241 239 211 237 254 256 263 253 247 242 234 204 208 184 196
350 334 320 309 292 288 287 288 295 295 283 262 270 277 272 288 293 286 266 248 244 233 250 244 237 240 248 260 276 222 218 225 236 244 253 263 263 244 231 216 203 185 182
348 338 333 324 311 308 295 265 276 255 242 276 266 251 282 286 266 268 279 287 260 247 251 229 236 227 256 259 242 243 247 244 242 239 243 249 255 244 235 201 209 188 192
346 331 316 312 313 311 307 310 283 277 283 274 259 224 276 256 275 278 272 274 260 259 227 221 232 233 236 243 234 235 227 242 242 232 230 232 258 250 237 217 207 211 210
311 302 300 302 315 313 312 309 308 305 284 271 276 282 249 252 285 295 306 292 260 160 211 233 233 231 234 235 233 231 244 232 234 228 230 233 236 254 223 220 214 206 210
303 291 300 305 309 309 309 310 306 303 300 298 305 288 278 277 288 293 321 200 273 228 239 240 247 246 238 233 235 239 246 237 225 233 234 237 228 240 224 218 210 207 174
323 329 330 324 315 306 300 294 296 300 307 305 310 297 284 282 283 297 154 238 267 278 266 243 239 247 245 237 238 240 237 238 230 231 235 234 214 216 226 220 214 195 204
332 329 327 320 314 313 315 313 313 309 301 292 291 292 298 278 298 298 258 246 250 254 272 269 262 244 239 238 243 242 242 240 239 233 236 229 206 201 220 214 210 196 200
328 320 321 313 312 309 306 301 302 303 300 297 290 292 283 298 296 288 293 290 274 285 284 276 265 259 256 250 243 242 241 244 236 232 227 221 204 202 212 215 208 205 195
333 330 329 327 324 321 321 313 300 300 301 306 316 320 319 309 303 303 300 295 289 282 279 279 278 273 264 258 248 240 243 245 238 229 218 210 207 200 199 203 192 189 185
336 334 333 330 327 325 320 316 314 310 304 306 309 305 304 305 304 299 296 292 289 287 283 278 271 273 271 259 248 244 244 238 233 224 216 206 208 205 202 196 186 182 186
351 344 338 338 337 331 328 325 321 318 311 307 304 301 304 305 300 299 316 315 301 298 290 279 277 267 265 260 259 254 239 235 233 228 214 200 206 199 198 197 185 186 175
355 350 346 341 337 333 330 333 333 331 329 326 326 318 313 310 311 316 307 307 322 305 330 316 300 293 274 276 273 264 252 238 228 220 205 199 206 205 201 196 184 172 164
340 344 350 343 345 344 338 338 335 335 334 329 327 323 320 318 309 310 314 309 308 315 304 291 294 293 295 292 281 270 259 249 240 220 193 188 198 200 199 195 190 180 174